Other Surface Observations
Issued by NWS Tucson, AZ

Home | Current Version | Previous Version | Text Only | Print | Product List | Glossary On
Versions: 1 2 3 4 5 6 7 8 9 10 11 12 13 14 15 16 17 18 19 20 21 22 23 24 25 26 27 28 29 30 31 32 33 34 35 36 37 38 39 40 41 42 43 44 45 46 47 48 49 50
000
SXUS55 KTWC 282216
OSOTWC

WEATHER ROUNDUP FOR SOUTHEAST ARIZONA
NATIONAL WEATHER SERVICE TUCSON AZ
315 PM MST TUE JUL 28 2015

AZZ504>506-514-282315-
LOCATION       SKY/WX    TMP DP  RH WIND       PRES   REMARKS
TUCSON         MOSUNNY   99  54  22 NW7       29.89F
DAVIS-MONTHAN  PTSUNNY   98  56  24 W6        29.88F
CHILDRENS PARK N/A       98  57  26 NW5               PIMA CO DEQ
ALVERNON/22ND  N/A      N/A N/A N/A N/A               PIMA CO DEQ
CHERRY/GLENN   N/A      N/A N/A N/A N/A               PIMA CO DEQ
TANGERINE      N/A      100 N/A N/A NW8               PIMA CO DEQ
CONTL RANCH    N/A      101  59  25 NW7               PIMA CO DEQ
GRANT/1ST      N/A       99  56  24 NE3               PIMA CO DEQ
CRAYCROFT/22ND N/A      N/A N/A N/A N/A               PIMA CO DEQ
GOLFLINKS/KOLB N/A      N/A N/A N/A N/A               PIMA CO DEQ
AJO/12TH       N/A      100  54  22 W2                PIMA CO DEQ
SAGUARO EAST   N/A      N/A N/A N/A N/A               PIMA CO DEQ
FAIRGROUNDS    N/A       98 N/A N/A W8                PIMA CO DEQ
SAGUARO        N/A      102  58  24 W11G17            *SABINO CYN
SAN CARLOS     N/A      105  53  18 SE4G13            *SAN CARLOS
GREEN VALLEY   N/A       97  55  25 NE3               PIMA CO DEQ
HORSE CAMP CYN N/A       95  52  24 NW4G16            *ARAVAIPA CYN
RINCON MTNS    N/A       63  56  79 CALM              *NR MANNING CAMP
$$

AZZ509>511-282315-
LOCATION       SKY/WX    TMP DP  RH WIND       PRES   REMARKS
SAFFORD        CLOUDY    98  47  17 VRB7      29.90F
STRAY HORSE    N/A       74  45  35 E4                *
TRAIL CABIN    N/A       84  47  28 NE4G12            *N OF GRANVILLE
BLACK HILLS    N/A       96  51  22 SW13G22           *N OF FT THOMAS
DRY LAKE       N/A       62  57  84 E3                *NATANES MTNS
NOON CREEK     N/A       95  52  24 NE5G14            *PINALENO MTNS
COLUMBINE      N/A       64  45  50 CALM              *PINALENO MTNS
GUTHRIE        N/A       80  46  30 N6G15             *SW OF GUTHRIE
$$

AZZ502-503-513-282315-
LOCATION       SKY/WX    TMP DP  RH WIND       PRES   REMARKS
NOGALES        CLOUDY    89  58  34 E18G35    29.99F THUNDER
SELLS          N/A       97  60  30 SE6G12            *
SASABE         N/A       98  59  28 W4G13             *ALTAR VLY
HOPKINS        N/A       70  59  69 N9G18             *SANTA RITA MTNS
CARR CYN       N/A       79  62  57 CALM              *W OF HEREFORD
$$

AZZ507-508-512-282315-
LOCATION       SKY/WX    TMP DP  RH WIND       PRES   REMARKS
SIERRA VISTA   PTSUNNY   83  60  46 SW8       30.07F
DOUGLAS          N/A    N/A N/A N/A MISG      30.04F
EMPIRE MTNS    N/A       78  57  49 NW14G25           *LAS CIENEGAS NCA
MULESHOE RANCH N/A       90  52  28 NE8G15            *PRESERVE
HEADQUARTERS   N/A       71  65  80 E4                *CHIRICAHUA MTNS
$$

.............................NOTES.............................
THIS IS AN AUTOMATED COLLECTIVE WITH MINIMAL QUALITY CONTROL.
PIMA CO DEQ SITES HAVE NONSTANDARD WIND SENSOR HEIGHTS.
PIMA CO DEQ SITES DO NOT REPORT WIND GUSTS.
* INDICATES WIND SENSORS LOCATED AT 20 FEET INSTEAD OF 33 FEET.
..............................KEY..............................
SKY/WX - SKY CONDITION/WEATHER
TMP    - TEMPERATURE IN FAHRENHEIT
DP     - DEWPOINT IN FAHRENHEIT
RH     - RELATIVE HUMIDITY IN PERCENT
WIND   - DIRECTION AND SPEED IN MILES PER HOUR (MPH)
VRB    - VARIABLE WIND DIRECTION
PRES   - MEAN SEA LEVEL PRESSURE IN INCHES OF MERCURY
         F - FALLING PRESSURE   R - RISING PRESSURE
         S - STEADY PRESSURE
VSB    - VISIBILITY IN MILES
HX     - HEAT INDEX IN FAHRENHEIT
WCI    - WIND CHILL INDEX IN FAHRENHEIT
N/A    - NOT AVAILABLE
AFB    - AIR FORCE BASE
         DAVIS-MONTHAN IS DAVIS-MONTHAN AIR FORCE BASE
CYN    - CANYON
MTNS   - MOUNTAINS
NCA    - NATIONAL CONSERVATION AREA
NR     - NEAR
VLY    - VALLEY
CONTL  - CONTINENTAL
PIMA CO DEQ - PIMA COUNTY DEPT OF ENVIRONMENTAL QUALITY



USA.gov is the U.S. government's official web portal to all federal, state and local government web resources and services.